DW3793 Weather Reports


Display with metric or nautical units.
time (UTC)temp
F
wind
direction
speed
MPH
gust
MPH
rain 1hr
in
rain 24hr
in
rain mn
in
humidity
%
barometer
mb
20260509083035 46 296 1.0 7.0 0.00 0.00 0.00 69 1020.6
20260509081529 47 267 1.0 6.0 0.00 0.00 0.00 67 1020.6
20260509080034 47 314 2.0 5.0 0.00 0.00 0.00 66 1020.5
20260509074521 47 314 1.0 3.0 0.00 0.00 0.00 66 1020.4
20260509073019 47 311 1.0 4.0 0.00 0.00 0.00 67 1020.3
20260509071517 47 234 1.0 7.0 0.00 0.00 0.00 68 1020.1
20260509070015 48 302 2.0 5.0 0.00 0.00 0.00 65 1020.0
20260509064509 49 267 0.0 4.0 0.00 0.00 0.00 63 1020.0
20260509063005 50 300 1.0 3.0 0.00 0.00 0.00 62 1019.9
20260509061502 52 213 0.0 4.0 0.00 0.00 0.00 57 1019.7
20260509060001 55 114 0.0 4.0 0.00 0.00 0.00 51 1019.6
20260509054603 55 116 1.0 4.0 0.00 0.00 0.00 51 1019.6
20260509053059 54 172 0.0 3.0 0.00 0.00 0.00 53 1019.6
20260509051559 52 327 0.0 1.0 0.00 0.00 0.00 56 1019.7
20260509050123 55 325 0.0 5.0 0.00 0.00 0.00 51 1019.4
20260509044600 57 123 1.0 4.0 0.00 0.00 0.00 47 1019.1
20260509043050 58 109 3.0 8.0 0.00 0.00 0.00 46 1019.0
20260509041549 59 63 3.0 11.0 0.00 0.00 0.00 44 1019.0
20260509040048 59 87 8.0 14.0 0.00 0.00 0.00 42 1018.8
20260509034516 59 92 3.0 8.0 0.00 0.00 0.00 42 1018.7
20260509033014 60 130 1.0 5.0 0.00 0.00 0.00 41 1018.4
20260509031513 61 107 1.0 8.0 0.00 0.00 0.00 39 1018.1
20260509030013 62 151 2.0 7.0 0.00 0.00 0.00 39 1017.8
20260509024509 64 213 1.0 4.0 0.00 0.00 0.00 35 1017.6
20260509023011 64 126 0.0 5.0 0.00 0.00 0.00 35 1017.5
20260509021502 65 148 4.0 8.0 0.00 0.00 0.00 35 1017.5
20260509020003 66 161 2.0 8.0 0.00 0.00 0.00 35 1017.3
20260509014601 66 146 2.0 15.0 0.00 0.00 0.00 33 1017.2
20260509013103 67 57 5.0 16.0 0.00 0.00 0.00 30 1017.1
20260509011557 68 88 5.0 10.0 0.00 0.00 0.00 31 1017.0
20260509010056 68 139 7.0 13.0 0.00 0.00 0.00 30 1017.0
20260509004555 68 81 7.0 15.0 0.00 0.00 0.00 29 1016.9
20260509003104 69 125 9.0 15.0 0.00 0.00 0.00 30 1016.8
20260509001552 70 80 8.0 15.0 0.00 0.00 0.00 29 1016.6
20260508234550 69 90 6.0 17.0 0.00 0.00 0.00 37 1016.5
20260508233052 70 99 6.0 13.0 0.00 0.00 0.00 34 1016.5
20260508231547 70 76 4.0 13.0 0.00 0.00 0.00 34 1016.5
20260508230050 69 115 8.0 17.0 0.00 0.00 0.00 37 1016.6
20260508224545 69 44 6.0 11.0 0.00 0.00 0.00 33 1016.6
20260508223044 69 115 1.0 6.0 0.00 0.00 0.00 31 1016.7
20260508221609 67 161 4.0 8.0 0.00 0.00 0.00 36 1016.6
20260508220024 68 146 5.0 10.0 0.00 0.00 0.00 33 1016.5
20260508214522 67 128 0.0 3.0 0.00 0.00 0.00 37 1016.7
20260508213023 66 192 1.0 6.0 0.00 0.00 0.00 32 1016.6
20260508211518 66 186 2.0 5.0 0.00 0.00 0.00 35 1016.6
20260508210018 66 157 2.0 6.0 0.00 0.00 0.00 36 1016.7
20260508204518 66 155 1.0 5.0 0.00 0.00 0.00 35 1016.9
20260508203016 65 139 2.0 10.0 0.00 0.00 0.00 33 1017.0
20260508201519 66 162 4.0 8.0 0.00 0.00 0.00 32 1017.1
20260508200020 66 159 4.0 9.0 0.00 0.00 0.00 32 1017.1
20260508194513 66 150 3.0 8.0 0.00 0.00 0.00 33 1017.1
20260508193014 65 145 3.0 8.0 0.00 0.00 0.00 32 1017.3
20260508191504 65 127 1.0 8.0 0.00 0.00 0.00 32 1017.4
20260508190007 65 167 1.0 7.0 0.00 0.00 0.00 33 1017.5
20260508184506 64 138 3.0 9.0 0.00 0.00 0.00 31 1017.5
20260508183031 64 180 1.0 8.0 0.00 0.00 0.00 34 1017.4
20260508181547 64 179 3.0 9.0 0.00 0.00 0.00 33 1017.5
20260508180027 64 141 1.0 8.0 0.00 0.00 0.00 37 1017.5
20260508174524 64 121 4.0 8.0 0.00 0.00 0.00 47 1017.5
20260508173034 62 125 0.0 1.0 0.00 0.00 0.00 44 1017.4
20260508171524 59 140 1.0 4.0 0.00 0.00 0.00 55 1017.4
20260508170054 57 82 0.0 3.0 0.00 0.00 0.00 57 1017.5
20260508164557 57 324 1.0 4.0 0.00 0.00 0.00 59 1017.4
20260508163049 56 83 0.0 1.0 0.00 0.00 0.00 58 1017.5
20260508161549 52 135 1.0 5.0 0.00 0.00 0.00 62 1017.4
20260508160045 52 116 1.0 6.0 0.00 0.00 0.00 61 1017.3
20260508154543 53 162 0.0 3.0 0.00 0.00 0.00 56 1017.1
20260508153012 51 150 0.0 2.0 0.00 0.00 0.00 59 1017.3
20260508151511 51 142 0.0 3.0 0.00 0.00 0.00 60 1017.4
20260508150009 51 130 1.0 4.0 0.00 0.00 0.00 59 1017.3
20260508144513 50 96 1.0 3.0 0.00 0.00 0.00 54 1017.3
20260508143018 48 143 0.0 2.0 0.00 0.00 0.00 60 1017.3
20260508141509 45 142 0.0 1.0 0.00 0.00 0.00 65 1017.3
20260508140004 42 300 0.0 3.0 0.00 0.00 0.00 67 1017.4
20260508134501 38 285 0.0 2.0 0.00 0.00 0.00 70 1017.3
20260508133117 38 288 0.0 1.0 0.00 0.00 0.00 67 1017.2
20260508131558 38 325 0.0 2.0 0.00 0.00 0.00 65 1017.1
20260508130053 38 310 0.0 2.0 0.00 0.00 0.00 63 1017.1
20260508124550 39 207 0.0 2.0 0.00 0.00 0.00 58 1016.8
20260508123054 40 132 0.0 1.0 0.00 0.00 0.00 55 1016.7
20260508121551 41 215 0.0 1.0 0.00 0.00 0.00 52 1016.6
20260508120042 44 74 0.0 3.0 0.00 0.00 0.00 49 1016.7
20260508114540 43 271 2.0 4.0 0.00 0.00 0.00 50 1016.4
20260508113036 42 307 0.0 3.0 0.00 0.00 0.00 52 1016.4
20260508111534 43 288 0.0 3.0 0.00 0.00 0.00 52 1016.3
20260508110035 43 260 0.0 1.0 0.00 0.00 0.00 48 1016.4
20260508104527 45 259 1.0 3.0 0.00 0.00 0.00 47 1016.3
20260508103024 47 302 0.0 2.0 0.00 0.00 0.00 47 1016.2
20260508101523 46 302 1.0 5.0 0.00 0.00 0.00 50 1016.2
20260508100025 46 311 0.0 5.0 0.00 0.00 0.00 53 1016.2
20260508094521 46 309 2.0 5.0 0.00 0.00 0.00 54 1016.2
20260508093022 46 309 3.0 7.0 0.00 0.00 0.00 57 1016.2
20260508091524 45 300 3.0 5.0 0.00 0.00 0.00 58 1016.2
20260508090016 47 306 2.0 5.0 0.00 0.00 0.00 55 1016.4
20260508084510 47 296 2.0 5.0 0.00 0.00 0.00 55 1016.4